NOAA NWS Hourly Roundups by Site

Regional Weather Roundup for State College, PA

To Select Another Site Choose from List

Select Site:  

000
ASUS41 KCTP 100810
RWRCTP

REGIONAL WEATHER ROUNDUP
NATIONAL WEATHER SERVICE STATE COLLEGE PA
300 AM EST MON DEC 10 2018

Note: "fair" indicates few or no clouds below 12,000 feet with no
significant weather and/or obstructions to visibility.

* = STATION THAT DOES NOT REPORT PRECIPITATION /E.G. RAIN...SNOW...ETC/
    THUNDER OR FOG.

PAZ002>004-007>009-013>016-020>023-029>032-100900-
WESTERN PENNSYLVANIA

CITY           SKY/WX    TMP DP  RH WIND       PRES   REMARKS
ERIE           CLOUDY    30  21  69 NE6       30.19S
MEADVILLE      CLOUDY    24  21  88 N6        30.13F
FRANKLIN*      CLOUDY    22  19  89 N6        30.13S WCI  14
NEW CASTLE     CLOUDY    16  15  96 CALM      30.17F
BEAVER COUNTY  NOT AVBL
BUTLER*        CLOUDY    16  14  92 NE5       30.16R WCI   9
PITTSBURGH INT FAIR      18  14  84 N3        30.15R
PITTSBURGH     FAIR      20  18  92 N7        30.13S WCI  11
INDIANA*       CLEAR     12  10  92 E3        30.16S
LATROBE        FAIR      16  14  93 CALM      30.15R
WASHINGTON CO* FAIR      12   9  87 CALM      30.18R
$$

PAZ004>006-010>012-017>019-024>028-033>037-041-042-045-046-049>053-100900-
CENTRAL PENNSYLVANIA

CITY           SKY/WX    TMP DP  RH WIND       PRES   REMARKS
BRADFORD       CLOUDY    21  18  88 N5        30.08S WCI  15
DUBOIS         CLOUDY    19  16  88 NE5       30.09R WCI  12
CLEARFIELD     FAIR      13  11  92 CALM      30.12R
JOHNSTOWN      FAIR      20  12  71 N7        30.05R WCI  11
ALTOONA        FAIR      18  14  84 CALM      30.10R FOG
STATE COLLEGE  FAIR      18  15  89 CALM      30.12R
WILLIAMSPORT   MOCLDY    19  15  84 NW5       30.16S WCI  12
SELINSGROVE    FAIR      17  14  88 CALM      30.16R
FT INDIANTOWN  FAIR      24  15  68 CALM      30.12R
CAPITAL CITY   FAIR      23  16  74 SW8       30.13R WCI  14
HARRISBURG     FAIR      25  17  72 NW7       30.12R
YORK           FAIR      19  16  88 CALM      30.11S
$$

PAZ038>040-043-044-047-048-054-055-060>062-067>071-100900-
EASTERN PENNSYLVANIA

CITY           SKY/WX    TMP DP  RH WIND       PRES   REMARKS
SCRANTON       MOCLDY    19  15  84 CALM      30.11S
MOUNT POCONO   FAIR      21  17  84 NW16      30.01F WCI   7
ALLENTOWN      FAIR      21  14  74 CALM      30.11S
QUAKERTOWN*    SUNNY     16  14  93 CALM      30.10R
READING        FAIR      20  18  92 N3        30.11R
LANCASTER      FAIR      24  16  71 W6        30.11S
COATESVILLE    FAIR      23  16  74 N5        30.10R
POTTSTOWN      FAIR      17  14  88 CALM      30.12R
BLUE BELL      FAIR      21  19  93 CALM      30.12S
DOYLESTOWN     FAIR      21  14  74 N3        30.10R
WILLOW GROVE   NOT AVBL
NORTH PHILA    FAIR      25  15  66 N8        30.12S
PHILADELPHIA   FAIR      27  16  63 N10       30.12R
$$


 

View Past Reports for State College, PA.

Products Courtesy of NOAA-NWS
NWS Information Parsing Script by Ken True at Saratoga Weather - Script by SE Lincoln Weather.